Flag for Syria Weather past 2 weeks in Damascus, Syria

Now
34 °F

Clear.


Feels Like: 31 °F
Forecast: 31 / 53 °F
Wind: 3 mph from West

Location: Damascus Int. Airport

Current Time: Jan 30, 2015 at 7:02:44 AM

Latest Report: Jan 30, 2015 at 6:00 AM


Visibility: 10 mi

Pressure: 29.95 "Hg

Humidity: 81%

Dew point: 28 °F

Location of DamascusLocation

Historic Weather in Damascus — Graph

°F

Damascus temperature yesterday

Maximum temperature yesterday: 59 °F (at 3:00 PM)
Minimum temperature yesterday: 37 °F (at 6:00 AM)
Average temperature yesterday: 46 °F

Past Weeks' High & Low Weather Summary

 TemperatureHumidityPressure
High73 °F (Jan 19, 12:00 AM)100% (Jan 15, 6:00 AM)30.33 "Hg (Jan 15, 6:00 AM)
Low30 °F (Jan 18, 4:00 AM)26% (Jan 28, 1:00 PM)29.86 "Hg (Jan 28, 12:00 PM)
Average46 °F73%30.12 "Hg
* Reported Jan 15 5:00 AM — Jan 30 5:00 AM, Damascus, Weather by CustomWeather, © 2014

Note: Actual official high and low records may vary slightly from our data, if they occured in-between our weather recording intervals... More about our weather records

Advertising

Damascus weather history for previous 24 hours

 ConditionsComfort  
Time TempWeatherWind HumidityBarometerVisibility
5:00 AM
Jan 30
34 °FClear.No wind87%29.95 "Hg10 mi
4:00 AM36 °FClear.No wind81%29.92 "Hg10 mi
3:00 AM37 °FClear.No wind81%29.95 "Hg10 mi
2:00 AM39 °FClear.7 mph75%29.95 "Hg10 mi
1:00 AM41 °FClear.7 mph70%29.95 "Hg10 mi
12:00 AM39 °FClear.3 mph75%29.98 "Hg10 mi
11:00 PM
Jan 29
41 °FClear.7 mph70%29.98 "Hg10 mi
10:00 PM41 °FClear.5 mph70%29.98 "Hg10 mi
9:00 PM41 °FClear.5 mph66%29.98 "Hg10 mi
8:00 PM43 °FClear.No wind66%29.98 "Hg10 mi
7:00 PM48 °FClear.5 mph54%29.98 "Hg10 mi
6:00 PM50 °FPassing clouds.No wind50%29.95 "HgN/A
5:00 PM55 °FPassing clouds.No wind38%29.92 "HgN/A
4:00 PM57 °FPassing clouds.3 mph39%29.95 "HgN/A
3:00 PM59 °FPassing clouds.2 mph36%29.95 "HgN/A
2:00 PM57 °FPassing clouds.3 mph44%29.95 "HgN/A
1:00 PM57 °FSunny.5 mph41%29.98 "Hg10 mi
12:00 PM55 °FSunny.5 mph44%30.01 "Hg10 mi
11:00 AM52 °FSunny.6 mph50%30.01 "Hg10 mi
10:00 AM48 °FSunny.No wind62%30.04 "Hg10 mi
9:00 AM41 °FSunny.No wind81%30.04 "Hg10 mi
8:00 AM37 °FSunny.No wind87%30.01 "Hg10 mi
7:00 AM37 °FSunny.No wind81%29.98 "Hg10 mi
Weather by CustomWeather, © 2014

See weather overviewHow to use our weather pages